FW8761 Weather Reports


time (UTC)temp
C
wind
direction
speed
KPH
gust
KPH
rain 1hr
cm
rain 24hr
cm
rain mn
cm
humidity
%
barometer
mb
20260510204536 33 126 6.4 22.5 0.00 0.00 0.00 56 1010.5
20260510203030 33 153 6.4 17.7 0.00 0.00 0.00 55 1010.4
20260510201529 33 171 8.0 17.7 0.00 0.00 0.00 55 1010.6
20260510200028 33 232 8.0 19.3 0.00 0.00 0.00 55 1010.7
20260510194532 33 97 6.4 19.3 0.00 0.00 0.00 55 1010.8
20260510193027 33 151 4.8 24.1 0.00 0.00 0.00 56 1010.9
20260510191528 33 146 8.0 17.7 0.00 0.00 0.00 56 1011.0
20260510190034 32 155 4.8 16.1 0.00 0.00 0.00 56 1011.2
20260510184529 32 160 4.8 17.7 0.00 0.00 0.00 57 1011.3
20260510183028 32 61 6.4 14.5 0.00 0.00 0.00 60 1011.5
20260510181536 31 171 3.2 14.5 0.00 0.00 0.00 61 1011.8
20260510180027 31 135 3.2 14.5 0.00 0.00 0.00 62 1012.0
20260510174530 31 142 3.2 14.5 0.00 0.00 0.00 62 1012.3
20260510173028 31 128 6.4 17.7 0.00 0.00 0.00 63 1012.3
20260510171528 30 102 6.4 14.5 0.00 0.00 0.00 64 1012.1
20260510170030 30 93 3.2 16.1 0.00 0.00 0.00 65 1012.2
20260510164529 30 122 3.2 19.3 0.00 0.00 0.00 66 1012.2
20260510163027 29 142 4.8 14.5 0.00 0.00 0.00 68 1011.9
20260510161527 28 167 6.4 12.9 0.00 0.00 0.00 69 1012.0
20260510160037 28 86 4.8 11.3 0.00 0.00 0.00 70 1011.8
20260510154530 27 146 3.2 14.5 0.00 0.00 0.00 73 1011.8
20260510153032 26 108 4.8 11.3 0.00 0.00 0.00 75 1011.6
20260510151537 26 0 3.2 12.9 0.00 0.00 0.00 78 1011.4
20260510150032 25 150 1.6 11.3 0.00 0.00 0.00 80 1011.4
20260510144536 24 173 3.2 12.9 0.00 0.00 0.00 82 1011.2
20260510143028 23 170 6.4 17.7 0.00 0.00 0.00 84 1011.2
20260510141530 23 198 4.8 9.7 0.00 0.00 0.00 87 1011.1
20260510140029 22 215 1.6 8.0 0.00 0.00 0.00 88 1010.9
20260510134528 22 237 3.2 11.3 0.00 0.00 0.00 88 1010.7
20260510133028 21 211 3.2 12.9 0.00 0.00 0.00 88 1010.7
20260510131530 21 178 3.2 9.7 0.00 0.00 0.00 88 1010.6
20260510130030 21 240 0.0 9.7 0.00 0.00 0.00 88 1010.2
20260510124530 21 196 3.2 8.0 0.00 0.00 0.00 87 1010.2
20260510123028 21 214 1.6 6.4 0.00 0.00 0.00 86 1010.2
20260510121528 21 0 0.0 1.6 0.00 0.00 0.00 85 1010.0
20260510120028 21 0 0.0 4.8 0.00 0.00 0.00 85 1009.9
20260510114529 21 0 1.6 8.0 0.00 0.00 0.00 84 1009.7
20260510113028 21 0 1.6 8.0 0.00 0.00 0.00 83 1009.9
20260510111530 21 223 3.2 12.9 0.00 0.00 0.00 82 1009.8
20260510110029 21 197 1.6 9.7 0.00 0.00 0.00 81 1010.0
20260510104528 21 178 4.8 12.9 0.00 0.00 0.00 81 1009.8
20260510103028 21 0 1.6 8.0 0.00 0.00 0.00 80 1010.2
20260510101527 22 0 0.0 3.2 0.00 0.00 0.00 80 1010.2
20260510100027 22 0 0.0 4.8 0.00 0.00 0.00 79 1010.1
20260510094540 22 221 0.0 3.2 0.00 0.00 0.00 78 1009.9
20260510093033 22 0 0.0 6.4 0.00 0.00 0.00 78 1009.8
20260510091534 22 192 3.2 6.4 0.00 0.00 0.00 77 1009.7
20260510090028 23 0 0.0 3.2 0.00 0.00 0.00 76 1009.7
20260510084527 23 0 0.0 6.4 0.00 0.00 0.00 76 1009.7
20260510083047 23 184 1.6 6.4 0.00 0.00 0.00 75 1009.6
20260510081530 23 215 0.0 8.0 0.00 0.00 0.00 75 1009.6
20260510080028 23 227 3.2 8.0 0.00 0.00 0.00 75 1009.5
20260510074529 23 226 0.0 6.4 0.00 0.00 0.00 74 1009.4
20260510073027 24 205 3.2 9.7 0.00 0.00 0.00 74 1009.4
20260510071534 24 207 3.2 11.3 0.00 0.00 0.00 74 1009.5
20260510070028 24 192 4.8 12.9 0.00 0.00 0.00 73 1009.7
20260510064531 25 195 1.6 8.0 0.00 0.00 0.00 72 1009.5
20260510063031 25 0 1.6 6.4 0.00 0.00 0.00 72 1009.6
20260510061534 25 178 4.8 11.3 0.00 0.00 0.00 71 1009.7
20260510060037 25 189 4.8 16.1 0.00 0.00 0.00 71 1009.6
20260510054537 25 192 4.8 16.1 0.00 0.00 0.00 71 1009.4
20260510053030 25 216 4.8 11.3 0.00 0.00 0.00 70 1009.4
20260510051534 26 189 3.2 12.9 0.00 0.00 0.00 69 1009.2
20260510050029 26 171 3.2 12.9 0.00 0.00 0.00 69 1009.3
20260510044530 26 192 4.8 14.5 0.00 0.00 0.00 68 1009.0
20260510043034 27 181 6.4 14.5 0.00 0.00 0.00 67 1009.1
20260510041527 27 126 4.8 14.5 0.00 0.00 0.00 66 1009.0
20260510040028 27 170 3.2 6.4 0.00 0.00 0.00 65 1008.8
20260510034528 27 180 1.6 9.7 0.00 0.00 0.00 64 1008.6
20260510033028 27 0 3.2 8.0 0.00 0.00 0.00 64 1008.5
20260510031529 27 180 0.0 9.7 0.00 0.00 0.00 64 1008.5
20260510030030 28 126 1.6 8.0 0.00 0.00 0.00 64 1008.2
20260510024527 28 213 1.6 8.0 0.00 0.00 0.00 63 1008.1
20260510023028 28 136 4.8 12.9 0.00 0.00 0.00 61 1008.0
20260510021528 28 165 1.6 8.0 0.00 0.00 0.00 59 1007.8
20260510020030 28 169 3.2 11.3 0.00 0.00 0.00 58 1007.7
20260510014529 29 176 3.2 11.3 0.00 0.00 0.00 56 1007.5
20260510013029 29 195 4.8 17.7 0.00 0.00 0.00 54 1007.0
20260510011528 30 166 4.8 19.3 0.00 0.00 0.00 53 1006.9
20260510010030 30 143 8.0 16.1 0.00 0.00 0.00 56 1006.6
20260510004527 31 165 4.8 14.5 0.00 0.00 0.00 55 1006.5
20260510003037 31 196 4.8 12.9 0.00 0.00 0.00 53 1006.3
20260510001528 31 196 6.4 16.1 0.00 0.00 0.00 52 1006.2
20260510000030 32 200 3.2 12.9 0.00 0.00 0.00 50 1005.7
20260509234538 32 188 8.0 16.1 0.00 0.00 0.00 48 1005.6
20260509233032 33 189 1.6 9.7 0.00 0.00 0.00 48 1006.1
20260509231530 33 194 3.2 14.5 0.00 0.00 0.00 47 1006.2
20260509230031 33 204 4.8 14.5 0.00 0.00 0.00 48 1006.3
20260509224528 34 181 4.8 11.3 0.00 0.00 0.00 47 1006.2
20260509223031 34 262 1.6 11.3 0.00 0.00 0.00 48 1006.1
20260509221530 34 207 3.2 11.3 0.00 0.00 0.00 47 1006.1
20260509220030 34 126 4.8 9.7 0.00 0.00 0.00 48 1006.2
20260509214527 34 200 1.6 11.3 0.00 0.00 0.00 51 1006.2
20260509213031 34 207 8.0 17.7 0.00 0.00 0.00 49 1006.3
20260509211529 35 252 4.8 11.3 0.00 0.00 0.00 48 1006.4
20260509210026 35 215 3.2 12.9 0.00 0.00 0.00 48 1006.7